This is the latest recevied weather packets stored in our database for station/object W9PEM-13. If no packets are shown the sender has not sent any weather packets the latest 10 day(s).
| Time | Temp. | Humidity | Pressure | Rain* | Wind** | Luminosity | Snow |
|---|---|---|---|---|---|---|---|
| 1777486221 | 5.56° C | 90% | 984.6 hPa | 2.54 mm | - | 142 W/m² | - |
| 1777485621 | 5.56° C | 90% | 984.6 hPa | 2.54 mm | - | 129 W/m² | - |
| 1777485021 | 5.56° C | 89% | 984.6 hPa | 2.03 mm | - | 108 W/m² | - |
| 1777484421 | 5.56° C | 87% | 984.5 hPa | 1.27 mm | - | 92 W/m² | - |
| 1777483822 | 5.56° C | 87% | 984.5 hPa | 1.02 mm | - | 139 W/m² | - |
| 1777483222 | 5.56° C | 86% | 984.6 hPa | 0.76 mm | - | 178 W/m² | - |
| 1777482621 | 5.56° C | 87% | 984.5 hPa | 0.51 mm | - | 142 W/m² | - |
| 1777481425 | 5.56° C | 85% | 984.5 hPa | 0 mm | - | 147 W/m² | - |
| 1777480825 | 5.56° C | 84% | 984.5 hPa | 0 mm | - | 163 W/m² | - |
| 1777480226 | 5.56° C | 85% | 984.6 hPa | 0 mm | - | 121 W/m² | - |
| 1777479625 | 6.11° C | 85% | 984.5 hPa | 0 mm | - | 123 W/m² | - |
| 1777478425 | 6.11° C | 84% | 984.7 hPa | 0 mm | - | 89 W/m² | - |
| 1777477825 | 6.11° C | 83% | 984.5 hPa | 0 mm | - | 96 W/m² | - |
| 1777477225 | 6.11° C | 83% | 984.5 hPa | 0 mm | - | 118 W/m² | - |
| 1777476625 | 6.67° C | 82% | 984.4 hPa | 0 mm | - | 169 W/m² | - |
| 1777476025 | 7.22° C | 81% | 984.2 hPa | 0 mm | - | 233 W/m² | - |
| 1777475426 | 7.22° C | 81% | 984.1 hPa | 0 mm | - | 521 W/m² | - |
| 1777474226 | 7.78° C | 81% | 984.1 hPa | 0 mm | - | 411 W/m² | - |
| 1777473626 | 7.22° C | 82% | 984.1 hPa | 0 mm | - | 439 W/m² | - |
| 1777473025 | 7.22° C | 82% | 983.8 hPa | 0 mm | - | 416 W/m² | - |
| 1777472425 | 6.67° C | 83% | 983.9 hPa | 0 mm | - | 348 W/m² | - |
| 1777471825 | 6.67° C | 84% | 984 hPa | 0 mm | - | 308 W/m² | - |
| 1777471225 | 6.67° C | 84% | 984 hPa | 0 mm | - | 255 W/m² | - |
| 1777470625 | 6.11° C | 86% | 984.1 hPa | 0 mm | - | 264 W/m² | - |
| 1777470026 | 6.11° C | 87% | 984 hPa | 0 mm | - | 248 W/m² | - |
* Rain latest hour (hover to see other rain measurements)
** Current wind speed in m/s (hover to see current wind gust speed)